Flag for China Weather past 2 weeks in Changchun, Jilin, China

Now
61 °F

Sandstorm.


Feels Like: 61 °F
Forecast: 42 / 59 °F
Wind: 24 mph from West

Location: Changchun Airport

Current Time: May 5, 2015 at 2:20:38 PM

Latest Report: May 5, 2015 at 2:00 PM


Visibility: 1 mi

Pressure: 29.47 "Hg

Humidity: 16%

Dew point: 14 °F

Location of ChangchunLocation

Historic Weather in Changchun — Graph

°F

Changchun temperature yesterday

Maximum temperature yesterday: 64 °F (at 2:00 PM)
Minimum temperature yesterday: 45 °F (at 4:00 AM)
Average temperature yesterday: 55 °F

Past Weeks' High & Low Weather Summary

 TemperatureHumidityPressure
High91 °F (Apr 26, 2:00 PM)94% (May 2, 10:00 AM)30.04 "Hg (May 2, 10:00 AM)
Low37 °F (Apr 22, 4:00 AM)7% (Apr 20, 3:00 PM)29.39 "Hg (May 5, 4:00 AM)
Average62 °F27%29.79 "Hg
* Reported Apr 20 1:00 PM — May 5 1:00 PM, Changchun, Weather by CustomWeather, © 2015

Note: Actual official high and low records may vary slightly from our data, if they occured in-between our weather recording intervals... More about our weather records

Advertising

Changchun weather history for previous 24 hours

 ConditionsComfort  
Time TempWeatherWind HumidityBarometerVisibility
1:00 PM
Tue, May 5
61 °FSandstorm.26 mph15%29.45 "Hg1 mi
12:00 PM63 °FSandstorm.26 mph19%29.45 "Hg1 mi
11:00 AM63 °FSandstorm.24 mph20%29.45 "Hg3 mi
10:00 AM63 °FScattered clouds.22 mph19%29.45 "Hg4 mi
9:00 AM61 °FScattered clouds.22 mph25%29.42 "Hg4 mi
8:00 AM61 °FPartly sunny.20 mph23%29.39 "HgN/A
7:00 AM59 °FScattered clouds.22 mph23%29.39 "HgN/A
6:00 AM55 °FSunny.17 mph23%29.39 "Hg10 mi
4:00 AM54 °FClear.17 mph21%29.39 "Hg10 mi
3:00 AM54 °FClear.13 mph21%29.47 "Hg10 mi
2:00 AM54 °FClear.15 mph22%29.50 "Hg10 mi
1:00 AM54 °FClear.10 mph22%29.50 "Hg10 mi
12:00 AM55 °FClear.10 mph16%29.53 "Hg10 mi
11:00 PM
Mon, May 4
50 °FClear.6 mph24%29.56 "Hg10 mi
10:00 PM50 °FClear.8 mph24%29.56 "Hg10 mi
9:00 PM54 °FClear.3 mph16%29.59 "Hg10 mi
8:00 PM57 °FClear.3 mph13%29.59 "Hg10 mi
7:00 PM61 °FClear.6 mph10%29.56 "Hg10 mi
6:00 PM64 °FPassing clouds.10 mph8%29.56 "HgN/A
5:00 PM64 °FPassing clouds.13 mph8%29.56 "HgN/A
4:00 PM64 °FScattered clouds.17 mph8%29.56 "HgN/A
3:00 PM64 °FScattered clouds.13 mph8%29.59 "Hg4 mi
2:00 PM64 °FScattered clouds.20 mph8%29.59 "Hg4 mi
Weather by CustomWeather, © 2015

See weather overviewHow to use our weather pages